"Pseudo-MPEC" for P11dgty
Created 2021 Feb 28 15:07:06 UT using Find_Orb
Click here for an explanation of pseudo-MPECs
Astrometry: P11dgty C2021 02 12lI
Astrometry@Fk8oQQiNRr%T08AG7?+3(#[83(-(-E(#;yTFh]R
F51 P11dgty C2021 02 12;b`
redacted;KT(rE!XX][nvnvl$S!aVp`
clickep(CcnrEA
hereF51 P11dgty C2021 02 12
rFy*^ZxZ(t^SY::
fori
explanation0T.[\0]ZNNGEosFH#*\?PD
F51 Station data: (F51) Pan-STARRS 1, Haleakala (N20.707235 W156.255910) US/Hawaii. Observers N. Primak, A. Schultz, S. Watters, J. Thiel, T. Goggia. Measurer PS1 Science Consortium. 1.8-m Ritchey-Chrétien + CCD. Orbital elements: P11dgty Perihelion 2021 Mar 18.731152 +/- 48.8006 TT = 17:32:51 (JD 2459292.231152) Epoch 2021 Feb 12.0 TT = JDT 2459257.5 Earth MOID: 0.4512 Ma: 0.0950 M 351.80042458 +/- 15.883550 (J2000 ecliptic) AutoNEOCP n 0.23608705 +/- 0.237347 Peri. 105.24980 +/- 94.953540 a 2.59271393 +/- 1.73766 Node 59.17355 +/- 42.053197 e 0.4611340 +/- 0.246452 Incl. 10.27677 +/- 5.7961375 P 4.17 H 22.5 G 0.15 U 11.8 SR q 1.39712527 +/- 0.5059 Q 3.78830260 +/- 123.275 From 3 observations 2021 Feb. 12 (36.9 min); mean residual 0".06
Residuals in arcseconds: 210212 F51 .06- .01- 210212 F51 .12+ .03+ 210212 F51 .06- .01- Ephemerides (geocentric): Date (UTC) HH RA Dec delta r elong mag " sig PA ---- -- -- -- ------------- ----------- ------ ------ ----- --- ---- --- 2021 02 28 15 09 42 40.048 +45 54 20.32 .49939 1.4085 139.6 23.0 27d 24 2021 02 28 16 09 42 40.492 +45 54 03.79 .49942 1.4085 139.5 23.0 27d 24 2021 02 28 17 09 42 40.939 +45 53 47.19 .49945 1.4084 139.5 23.0 27d 24 2021 02 28 18 09 42 41.390 +45 53 30.50 .49947 1.4084 139.5 23.0 27d 24 2021 02 28 19 09 42 41.844 +45 53 13.73 .49950 1.4083 139.5 23.0 27d 24 2021 02 28 20 09 42 42.302 +45 52 56.88 .49953 1.4082 139.5 23.0 27d 24 2021 02 28 21 09 42 42.763 +45 52 39.95 .49956 1.4082 139.4 23.0 27d 24 2021 02 28 22 09 42 43.228 +45 52 22.94 .49959 1.4081 139.4 23.0 27d 24 2021 02 28 23 09 42 43.697 +45 52 05.85 .49962 1.4081 139.4 23.0 27d 24 2021 03 01 00 09 42 44.168 +45 51 48.68 .49964 1.4080 139.4 23.0 27d 24 2021 03 01 01 09 42 44.644 +45 51 31.43 .49967 1.4080 139.3 23.0 27d 24 2021 03 01 02 09 42 45.122 +45 51 14.10 .49970 1.4079 139.3 23.0 27d 24 2021 03 01 03 09 42 45.605 +45 50 56.69 .49973 1.4079 139.3 23.0 27d 24 2021 03 01 04 09 42 46.091 +45 50 39.19 .49976 1.4078 139.3 23.0 27d 24 2021 03 01 05 09 42 46.580 +45 50 21.62 .49979 1.4078 139.3 23.0 27d 23 2021 03 01 06 09 42 47.073 +45 50 03.97 .49982 1.4077 139.2 23.0 27d 23 2021 03 01 07 09 42 47.569 +45 49 46.23 .49985 1.4077 139.2 23.0 27d 23 2021 03 01 08 09 42 48.069 +45 49 28.42 .49988 1.4076 139.2 23.0 27d 23 2021 03 01 09 09 42 48.573 +45 49 10.52 .49991 1.4076 139.2 23.0 27d 23 2021 03 01 10 09 42 49.080 +45 48 52.55 .49994 1.4075 139.2 23.0 27d 23 2021 03 01 11 09 42 49.590 +45 48 34.49 .49997 1.4075 139.1 23.0 27d 23 2021 03 01 12 09 42 50.104 +45 48 16.36 .50000 1.4074 139.1 23.0 27d 23 2021 03 01 13 09 42 50.622 +45 47 58.14 .50004 1.4074 139.1 23.0 27d 24 2021 03 01 14 09 42 51.143 +45 47 39.85 .50007 1.4073 139.1 23.0 27d 24 2021 03 01 15 09 42 51.668 +45 47 21.47 .50010 1.4073 139.0 23.0 27d 24 2021 03 01 16 09 42 52.197 +45 47 03.02 .50013 1.4072 139.0 23.0 28d 24 2021 03 01 17 09 42 52.729 +45 46 44.48 .50016 1.4072 139.0 23.0 28d 24 2021 03 01 18 09 42 53.264 +45 46 25.86 .50019 1.4071 139.0 23.0 28d 24 2021 03 01 19 09 42 53.803 +45 46 07.17 .50023 1.4071 139.0 23.0 28d 24 2021 03 01 20 09 42 54.346 +45 45 48.39 .50026 1.4070 138.9 23.0 28d 24 2021 03 01 21 09 42 54.893 +45 45 29.54 .50029 1.4070 138.9 23.0 28d 25 2021 03 01 22 09 42 55.443 +45 45 10.60 .50032 1.4070 138.9 23.0 28d 25 2021 03 01 23 09 42 55.996 +45 44 51.59 .50036 1.4069 138.9 23.0 28d 25 2021 03 02 00 09 42 56.553 +45 44 32.49 .50039 1.4069 138.8 23.0 28d 26 2021 03 02 01 09 42 57.114 +45 44 13.32 .50042 1.4068 138.8 23.0 29d 26 2021 03 02 02 09 42 57.678 +45 43 54.06 .50046 1.4068 138.8 23.0 29d 27 2021 03 02 03 09 42 58.247 +45 43 34.73 .50049 1.4067 138.8 23.0 29d 27 2021 03 02 04 09 42 58.818 +45 43 15.31 .50052 1.4067 138.8 23.0 29d 27 2021 03 02 05 09 42 59.394 +45 42 55.82 .50056 1.4066 138.7 23.0 29d 27 2021 03 02 06 09 42 59.972 +45 42 36.24 .50059 1.4066 138.7 23.0 29d 28 2021 03 02 07 09 43 00.555 +45 42 16.59 .50062 1.4065 138.7 23.0 29d 28 2021 03 02 08 09 43 01.141 +45 41 56.86 .50066 1.4065 138.7 23.0 29d 28 2021 03 02 09 09 43 01.731 +45 41 37.04 .50069 1.4064 138.7 23.0 30d 28 2021 03 02 10 09 43 02.325 +45 41 17.15 .50073 1.4064 138.6 23.0 30d 28 2021 03 02 11 09 43 02.922 +45 40 57.18 .50076 1.4063 138.6 23.0 30d 28 2021 03 02 12 09 43 03.523 +45 40 37.13 .50080 1.4063 138.6 23.0 30d 28 2021 03 02 13 09 43 04.127 +45 40 17.00 .50083 1.4062 138.6 23.0 30d 28 2021 03 02 14 09 43 04.736 +45 39 56.79 .50087 1.4062 138.5 23.0 30d 28